When you browse on this site, cookies collect data to enhance your experience and personalize the content and advertising you see.
Visit our Privacy Policy to learn more. By continuing to use the site, you agree to this use of cookies and data.
  • In Österreich
  • Länderverzeichnis
  • Für 7 Tage
  • Wassertemperatur
  • Wetterkarte
  • News
  • Widgets
  • user-avatar
    Anmelden

    Stündliche Wetter Wien

    Heute, 18 August, Sonntag

    Zeit Temperatur Niederschläge Wind Luftdruck Luftfeuchtigkeit
    00:00 +23°C° 0 mm 1 m/S 742 mmHg 53%
    01:00 +23°C° 0 mm 1 m/S 742 mmHg 54%
    02:00 +23°C° 0 mm 1 m/S 742 mmHg 54%
    03:00 +23°C° 0 mm 1 m/S 742 mmHg 55%
    04:00 +21°C° 0 mm 0 m/S 742 mmHg 56%
    05:00 +23°C° 0 mm 1 m/S 742 mmHg 57%
    06:00 +23°C° 0 mm 1 m/S 742 mmHg 57%
    07:00 +23°C° 0 mm 1 m/S 742 mmHg 58%
    08:00 +25°C° 0 mm 2 m/S 742 mmHg 52%
    09:00 +27°C° 0 mm 3 m/S 742 mmHg 46%
    10:00 +29°C° 0 mm 3 m/S 742 mmHg 41%
    11:00 +31°C° 0 mm 3 m/S 742 mmHg 36%
    12:00 +34°C° 0 mm 3 m/S 742 mmHg 31%
    13:00 +36°C° 0 mm 3 m/S 742 mmHg 26%
    14:00 +36°C° 0 mm 3 m/S 741 mmHg 26%
    15:00 +36°C° 0 mm 3 m/S 741 mmHg 26%
    16:00 +36°C° 0 mm 2 m/S 741 mmHg 26%
    17:00 +34°C° 0 mm 3 m/S 741 mmHg 31%
    18:00 +31°C° 0 mm 3 m/S 741 mmHg 37%
    19:00 +29°C° 0 mm 3 m/S 741 mmHg 42%
    20:00 +28°C° 0 mm 3 m/S 741 mmHg 46%
    21:00 +27°C° 0 mm 3 m/S 741 mmHg 51%
    22:00 +26°C° 0 mm 3 m/S 741 mmHg 55%
    23:00 +25°C° 0 mm 3 m/S 741 mmHg 57%

    Morgen, 19 August, Montag

    Zeit Temperatur Niederschläge Wind Luftdruck Luftfeuchtigkeit
    00:00 +24°C° 0 mm 3 m/S 741 mmHg 59%
    01:00 +23°C° 0 mm 4 m/S 741 mmHg 62%
    02:00 +22°C° 0 mm 3 m/S 741 mmHg 63%
    03:00 +22°C° 0 mm 3 m/S 742 mmHg 65%
    04:00 +21°C° 0 mm 3 m/S 742 mmHg 66%
    05:00 +22°C° 0 mm 4 m/S 743 mmHg 65%
    06:00 +23°C° 0 mm 4 m/S 744 mmHg 64%
    07:00 +23°C° 0 mm 5 m/S 744 mmHg 62%
    08:00 +26°C° 0 mm 5 m/S 745 mmHg 57%
    09:00 +27°C° 0 mm 5 m/S 745 mmHg 52%
    10:00 +28°C° 0 mm 5 m/S 745 mmHg 47%
    11:00 +28°C° 0 mm 5 m/S 745 mmHg 49%
    12:00 +27°C° 0 mm 5 m/S 746 mmHg 52%
    13:00 +27°C° 0 mm 6 m/S 746 mmHg 54%
    14:00 +27°C° 0 mm 5 m/S 746 mmHg 53%
    15:00 +27°C° 0 mm 4 m/S 745 mmHg 52%
    16:00 +27°C° 0 mm 2 m/S 745 mmHg 51%
    17:00 +26°C° 0 mm 2 m/S 745 mmHg 56%
    18:00 +25°C° 0 mm 2 m/S 745 mmHg 60%
    19:00 +24°C° 0 mm 1 m/S 745 mmHg 65%
    20:00 +23°C° 0 mm 1 m/S 746 mmHg 67%
    21:00 +23°C° 0 mm 1 m/S 746 mmHg 68%
    22:00 +22°C° 0 mm 1 m/S 746 mmHg 69%
    23:00 +22°C° 0 mm 1 m/S 746 mmHg 71%

    übermorgen, 20 August, Dienstag

    Zeit Temperatur Niederschläge Wind Luftdruck Luftfeuchtigkeit
    00:00 +22°C° 0 mm 1 m/S 746 mmHg 72%
    01:00 +21°C° 0 mm 1 m/S 746 mmHg 73%
    02:00 +21°C° 0.1 mm 1 m/S 746 mmHg 74%
    03:00 +21°C° 0.1 mm 1 m/S 746 mmHg 75%
    04:00 +21°C° 0.1 mm 1 m/S 746 mmHg 76%
    05:00 +21°C° 0.1 mm 1 m/S 746 mmHg 74%
    06:00 +22°C° 0.1 mm 1 m/S 746 mmHg 72%
    07:00 +23°C° 0.1 mm 1 m/S 746 mmHg 70%
    08:00 +24°C° 0 mm 1 m/S 746 mmHg 64%
    09:00 +25°C° 0 mm 1 m/S 746 mmHg 58%
    10:00 +27°C° 0 mm 2 m/S 746 mmHg 52%
    11:00 +28°C° 0 mm 2 m/S 746 mmHg 49%
    12:00 +29°C° 0 mm 2 m/S 746 mmHg 45%
    13:00 +30°C° 0 mm 2 m/S 746 mmHg 42%
    14:00 +30°C° 0 mm 2 m/S 745 mmHg 43%
    15:00 +29°C° 0 mm 2 m/S 745 mmHg 45%
    16:00 +29°C° 0 mm 2 m/S 744 mmHg 46%
    17:00 +27°C° 0.4 mm 2 m/S 744 mmHg 52%
    18:00 +26°C° 0.4 mm 2 m/S 744 mmHg 59%
    19:00 +24°C° 0.4 mm 2 m/S 744 mmHg 65%
    20:00 +24°C° 0.3 mm 3 m/S 745 mmHg 69%
    21:00 +22°C° 0.3 mm 4 m/S 746 mmHg 73%
    22:00 +21°C° 0.3 mm 5 m/S 746 mmHg 77%
    23:00 +20°C° 0.4 mm 6 m/S 747 mmHg 78%

    21 August, Mittwoch

    Zeit Temperatur Niederschläge Wind Luftdruck Luftfeuchtigkeit
    00:00 +18°C° 0.4 mm 7 m/S 747 mmHg 79%
    01:00 +17°C° 0.4 mm 7 m/S 747 mmHg 80%
    02:00 +17°C° 0 mm 7 m/S 748 mmHg 81%
    03:00 +17°C° 0 mm 6 m/S 748 mmHg 81%
    04:00 +17°C° 0 mm 6 m/S 748 mmHg 81%
    05:00 +17°C° 0 mm 6 m/S 748 mmHg 79%
    06:00 +17°C° 0 mm 6 m/S 749 mmHg 77%
    07:00 +19°C° 0 mm 6 m/S 749 mmHg 75%
    08:00 +19°C° 0 mm 6 m/S 749 mmHg 72%
    09:00 +20°C° 0 mm 5 m/S 749 mmHg 68%
    10:00 +21°C° 0 mm 5 m/S 749 mmHg 65%
    11:00 +22°C° 0 mm 5 m/S 749 mmHg 61%
    12:00 +23°C° 0 mm 5 m/S 749 mmHg 58%
    13:00 +25°C° 0 mm 5 m/S 749 mmHg 54%
    14:00 +23°C° 0.1 mm 5 m/S 749 mmHg 55%
    15:00 +23°C° 0.1 mm 5 m/S 749 mmHg 56%
    16:00 +23°C° 0.1 mm 4 m/S 749 mmHg 57%
    17:00 +22°C° 0 mm 4 m/S 749 mmHg 60%
    18:00 +21°C° 0 mm 4 m/S 749 mmHg 63%
    19:00 +20°C° 0 mm 3 m/S 749 mmHg 65%
    20:00 +20°C° 0 mm 3 m/S 749 mmHg 68%
    21:00 +19°C° 0 mm 3 m/S 749 mmHg 71%
    22:00 +18°C° 0 mm 3 m/S 749 mmHg 74%
    23:00 +17°C° 0 mm 3 m/S 749 mmHg 75%

    22 August, Donnerstag

    Zeit Temperatur Niederschläge Wind Luftdruck Luftfeuchtigkeit
    00:00 +17°C° 0 mm 3 m/S 749 mmHg 77%
    01:00 +17°C° 0 mm 3 m/S 749 mmHg 78%
    02:00 +16°C° 0 mm 3 m/S 749 mmHg 79%
    03:00 +16°C° 0 mm 3 m/S 749 mmHg 81%
    04:00 +16°C° 0 mm 3 m/S 749 mmHg 82%
    05:00 +16°C° 0 mm 3 m/S 749 mmHg 79%
    06:00 +17°C° 0 mm 3 m/S 749 mmHg 76%
    07:00 +17°C° 0 mm 4 m/S 749 mmHg 74%
    08:00 +19°C° 0 mm 4 m/S 749 mmHg 68%
    09:00 +20°C° 0 mm 4 m/S 749 mmHg 63%
    10:00 +21°C° 0 mm 4 m/S 749 mmHg 58%
    11:00 +22°C° 0 mm 4 m/S 749 mmHg 54%
    12:00 +25°C° 0 mm 4 m/S 749 mmHg 50%
    13:00 +26°C° 0 mm 4 m/S 749 mmHg 46%
    14:00 +26°C° 0 mm 4 m/S 749 mmHg 46%
    15:00 +26°C° 0 mm 4 m/S 748 mmHg 47%
    16:00 +26°C° 0 mm 4 m/S 748 mmHg 47%
    17:00 +25°C° 0 mm 4 m/S 748 mmHg 51%
    18:00 +22°C° 0 mm 4 m/S 748 mmHg 56%
    19:00 +21°C° 0 mm 3 m/S 748 mmHg 61%
    20:00 +20°C° 0 mm 3 m/S 749 mmHg 65%
    21:00 +19°C° 0 mm 3 m/S 749 mmHg 68%
    22:00 +18°C° 0 mm 3 m/S 749 mmHg 72%
    23:00 +18°C° 0 mm 3 m/S 749 mmHg 74%

    23 August, Freitag

    Zeit Temperatur Niederschläge Wind Luftdruck Luftfeuchtigkeit
    00:00 +17°C° 0 mm 3 m/S 749 mmHg 77%
    01:00 +16°C° 0 mm 3 m/S 749 mmHg 79%
    02:00 +16°C° 0 mm 3 m/S 749 mmHg 81%
    03:00 +16°C° 0 mm 3 m/S 749 mmHg 83%
    04:00 +14°C° 0 mm 3 m/S 749 mmHg 84%
    05:00 +16°C° 0 mm 3 m/S 749 mmHg 81%
    06:00 +17°C° 0 mm 3 m/S 749 mmHg 77%
    07:00 +17°C° 0 mm 3 m/S 750 mmHg 73%
    08:00 +19°C° 0 mm 3 m/S 749 mmHg 67%
    09:00 +21°C° 0 mm 3 m/S 749 mmHg 61%
    10:00 +24°C° 0 mm 2 m/S 749 mmHg 55%
    11:00 +25°C° 0 mm 2 m/S 749 mmHg 51%
    12:00 +27°C° 0 mm 2 m/S 749 mmHg 47%
    13:00 +28°C° 0 mm 2 m/S 749 mmHg 43%
    14:00 +28°C° 0 mm 2 m/S 748 mmHg 42%
    15:00 +29°C° 0 mm 2 m/S 748 mmHg 41%
    16:00 +29°C° 0 mm 2 m/S 748 mmHg 40%
    17:00 +27°C° 0 mm 2 m/S 748 mmHg 45%
    18:00 +26°C° 0 mm 2 m/S 748 mmHg 51%
    19:00 +24°C° 0 mm 2 m/S 747 mmHg 57%
    20:00 +23°C° 0 mm 1 m/S 748 mmHg 62%
    21:00 +22°C° 0 mm 1 m/S 748 mmHg 66%
    22:00 +21°C° 0 mm 1 m/S 748 mmHg 71%
    23:00 +21°C° 0 mm 1 m/S 748 mmHg 73%
    Mehr zeigen